Погода в Кайлах

Россия / Омская область     57°17′25″N   70°41′25″E
темп.,
°C
ветер,
м/с
пор.,
м/с
влажн.,
%
обл.,
%
осадки,
мм/ч
давл.,
гПа
погр.,
м
20 мая, пт
пт2000:00+9зюз614863 1.6 1001614
03:00+8юз511905 0.0 1002353
06:00+8юз5129099 0.1 1003647
09:00+10юз6116411 0.0 1003951
12:00+9ююз31187100 2.4 10031098
15:00+12з7136538 0.4 10031752
18:00+11з7115820 0.6 10051609
21:00+9зюз511625 0.0 1006715
21 мая, сб
сб2100:00+8зюз5126498 0.0 1007395
03:00+5ююз397517 0.0 1007191
06:00+6юз3972100 0.0 1007232
09:00+7ююз3589100 1.2 1007442
12:00+7в4685100 4.1 1005456
15:00+9св6108896 0.4 1002333
18:00+15св6107283 0.5 999316
21:00+12всв61482100 0.1 996307
22 мая, вс
вс2200:00+13всв51482100 0.1 993338
03:00+14в6157790 0.0 990312
06:00+13ю4107199 0.0 991272
09:00+14юз4775100 0.0 993693
12:00+13юз5872100 0.2 9951034
15:00+11ююз4670100 1.1 9961094
18:00+14юз5855100 1.1 9961792
21:00+10зюз5106987 0.0 999778
23 мая, пн
пн2300:00+8зюз51072100 0.0 1002875
03:00+5ююз39855 0.0 1004273
06:00+6ююз4118012 0.0 1006480
09:00+10ююз711635 0.0 10081361
12:00+13ююз794896 0.1 10091736
15:00+14ю61150100 0.0 10081962
18:00+9вюв41194100 5.1 1006867
21:00+10ю51293100 1.3 1005691
24 мая, вт
вт2400:00+11ю3119799 1.3 1005519
03:00+11ю4109864 0.1 1006343
06:00+11ююз4129599 0.1 1007440
09:00+14юз61182100 0.0 1009974
12:00+17юз6107071 0.7 10101328
15:00+17зюз377793 1.1 1011858
18:00+16юз228239 1.5 101276
21:00+16юв228669 0.0 101235